Wind_Speed
16 18 21 22 23 23 24 25 26 26 25 25 25 24 23 23 22 21 20 18 17 15 14 14 15 16 17 19 20 20 20 20 19 19 18 18 17 16 16 15 14 13 11 9 9 8 8 8 7 7 7 7 8 8 8 8 8 8 7 6 6 6 5 4 4 4 4 5 5 6 6 6 6 7 7 8 8 9 9 10 10 10 11 11 11
15 17 19 21 22 23 24 25 25 25 25 25 24 24 23 23 22 21 19 18 17 15 14 13 14 16 17 19 20 21 20 20 20 19 19 18 17 16 15 15 14 13 11 9 8 8 7 7 7 7 7 7 8 8 8 8 8 8 8 8 7 6 6 5 5 6 6 6 7 7 7 8 8 8 9 9 10 10 11 11 11 12 12 12 12
15 16 18 20 21 22 23 24 25 25 24 24 24 24 23 23 22 21 19 18 17 15 14 14 14 15 17 19 20 21 21 21 20 19 19 18 17 16 15 15 14 12 11 10 8 7 7 7 7 7 8 8 8 8 8 8 8 8 8 8 7 6 6 6 6 6 7 7 7 8 8 9 9 10 10 11 11 12 12 13 13 13 13 13 13
15 16 17 19 21 22 23 24 24 24 24 23 24 24 23 23 22 21 19 18 17 15 14 14 14 15 17 19 20 21 21 21 20 20 19 19 17 16 15 14 13 12 11 10 9 8 7 7 7 8 8 8 8 8 8 7 7 7 7 7 7 7 7 7 7 7 7 7 8 8 9 9 10 11 12 12 13 14 14 14 14 14 14 14 14
15 16 17 19 20 22 23 24 24 23 23 23 23 23 23 23 22 21 19 18 18 16 14 14 13 14 16 18 20 21 21 21 21 20 20 19 17 15 14 14 13 12 11 10 9 9 8 8 8 8 8 8 8 7 7 7 7 7 7 7 7 7 7 7 7 7 7 8 8 9 9 10 11 11 12 13 14 15 15 15 15 15 15 15 15
16 16 17 18 20 21 23 24 24 23 22 22 22 23 23 23 22 21 19 18 18 16 14 13 13 13 15 18 20 20 20 21 20 20 20 19 17 15 14 13 12 12 11 10 10 9 9 8 8 8 8 7 7 7 6 7 7 7 7 7 7 7 7 7 7 7 8 8 8 9 10 10 11 12 12 12 13 15 16 16 16 16 16 16 16
16 17 17 18 19 21 22 23 24 23 22 21 22 23 23 23 23 22 20 18 17 17 14 13 12 13 14 16 18 19 19 20 20 20 20 18 17 15 14 13 12 11 10 10 9 9 8 8 7 7 7 7 6 6 7 7 7 7 7 7 7 7 7 7 7 7 8 8 8 9 10 10 11 12 12 12 13 14 15 16 15 15 16 16 16
16 17 17 17 18 19 21 22 23 22 21 21 22 23 23 23 23 22 20 18 17 17 15 13 12 12 13 15 17 18 18 19 19 20 19 18 17 15 13 12 11 10 10 9 9 8 8 7 7 7 7 7 7 7 7 7 7 7 7 7 7 7 7 7 7 8 8 8 9 9 10 11 11 12 13 13 13 14 15 15 15 15 16 16 17
16 16 16 16 17 18 19 20 21 21 20 21 22 22 22 22 22 22 21 19 17 17 15 13 12 11 12 14 16 17 17 18 19 19 19 18 16 14 13 12 10 9 9 9 8 8 7 7 7 7 7 7 7 7 7 7 7 7 7 8 8 8 8 8 8 8 8 9 9 10 10 11 12 13 14 14 14 14 14 15 15 16 16 17 17
15 15 15 16 17 17 18 19 20 20 20 20 21 21 21 21 21 21 20 19 17 17 16 13 11 10 11 13 15 16 16 17 18 19 19 18 16 14 12 11 9 9 8 8 8 7 7 7 7 7 7 7 6 6 7 7 7 7 8 8 9 8 8 8 8 9 9 9 10 10 11 12 13 13 14 15 15 15 15 15 16 16 17 17 18
15 15 16 17 18 18 18 18 20 20 20 20 20 20 20 20 21 21 20 19 17 16 15 13 11 10 10 12 14 15 15 16 17 18 19 17 15 13 12 10 9 8 8 8 7 7 7 7 6 6 6 6 6 6 6 7 7 7 8 9 9 9 9 8 8 9 9 10 10 11 11 12 13 14 14 15 15 16 16 17 17 17 18 18 18
16 17 18 18 18 18 18 19 21 21 20 20 20 20 19 20 20 20 19 18 17 16 15 12 10 9 10 11 13 14 14 15 16 17 18 16 14 13 11 9 8 7 7 7 7 6 6 6 6 6 6 6 6 6 6 7 7 7 8 8 9 9 9 9 9 9 9 10 11 11 12 12 13 14 15 15 16 16 17 18 18 19 19 19 20
17 17 17 17 17 17 17 19 21 22 21 20 19 19 19 19 19 19 19 18 16 15 14 12 10 9 9 10 12 13 13 14 15 16 16 15 13 12 10 8 7 7 6 6 6 5 5 5 5 5 5 5 6 6 6 6 7 7 7 8 8 8 9 9 9 9 9 10 10 11 12 12 13 14 15 15 16 17 17 18 19 19 20 20 20
15 15 15 15 16 17 18 20 22 23 22 21 20 19 18 18 18 18 18 17 16 15 14 11 10 9 9 9 11 12 12 13 14 15 15 14 12 11 9 7 7 6 6 5 5 4 4 4 4 4 4 4 5 5 5 5 6 6 7 7 7 7 8 8 8 9 10 10 11 11 12 13 14 14 15 16 16 17 18 19 19 19 20 20 21
14 14 15 16 17 17 19 21 23 24 23 23 21 19 18 17 17 17 17 16 15 15 14 11 10 9 9 9 10 11 11 12 13 14 14 13 12 10 8 7 6 6 5 5 4 4 4 3 3 3 3 3 3 4 4 4 5 5 6 6 6 7 7 7 8 9 9 10 11 12 13 14 15 16 16 16 17 17 18 19 19 20 20 20 20
14 16 18 19 20 20 22 23 24 24 24 24 22 20 17 16 16 16 17 16 14 15 13 11 9 9 9 9 10 11 11 11 12 13 13 13 11 9 8 6 5 5 5 4 4 3 3 3 3 3 3 2 2 2 2 3 4 5 5 6 7 7 7 8 8 9 10 10 11 12 13 13 14 15 16 16 17 17 18 18 19 20 20 20 21
16 19 21 23 24 24 25 25 24 24 25 24 21 18 16 15 15 16 16 15 14 14 13 11 10 9 9 9 10 11 11 11 11 12 12 12 11 9 7 6 5 4 4 4 3 3 3 2 2 2 2 2 1 1 1 2 3 4 5 6 7 7 8 8 9 9 9 10 11 11 12 12 13 14 15 16 17 17 18 18 19 20 21 21 22
18 21 24 24 24 24 24 23 22 22 23 22 19 16 15 14 14 15 15 14 13 13 13 11 10 9 9 9 10 11 11 11 10 10 11 12 11 9 7 6 4 4 3 3 3 3 3 3 2 2 2 2 1 1 1 2 3 3 4 5 6 6 7 7 8 8 9 9 10 11 11 12 13 14 15 16 16 17 17 18 19 20 21 22 22
19 22 24 24 22 20 20 19 18 18 19 18 16 15 14 13 14 14 14 13 12 12 12 11 10 10 9 9 10 11 11 11 10 10 10 11 11 9 7 6 5 4 4 3 3 3 3 3 3 3 3 2 2 1 1 1 2 3 3 4 5 5 6 6 7 7 8 9 10 11 11 12 13 14 15 15 16 16 17 18 19 20 20 21 22
21 23 24 22 19 16 16 16 16 16 16 16 15 14 13 13 13 13 12 11 11 11 11 11 11 10 10 10 10 11 12 12 11 10 10 10 11 10 8 7 6 5 5 4 4 4 4 3 3 3 3 3 2 1 1 1 1 2 3 3 4 5 5 6 6 7 8 8 9 10 11 12 13 14 14 15 16 16 17 18 19 19 20 21 22
22 23 23 19 13 11 14 16 16 15 15 15 14 14 14 13 13 12 11 10 9 9 9 10 10 11 11 11 11 11 12 13 12 11 10 10 10 10 9 8 7 6 6 6 5 5 5 4 4 3 3 3 2 2 2 2 2 2 3 4 4 5 6 6 7 8 8 9 10 11 11 12 13 14 15 15 16 17 18 19 20 20 20 21 21
23 23 22 17 11 11 15 17 16 15 14 15 14 14 14 13 12 11 10 9 8 8 8 9 10 10 11 12 12 12 12 13 13 12 10 10 10 10 9 8 8 7 7 7 6 6 6 6 5 4 3 3 3 3 3 3 3 3 4 5 5 6 7 8 9 9 10 10 11 12 13 14 14 15 16 16 17 18 19 21 22 22 22 21 21
24 24 22 18 16 17 18 17 16 15 14 15 15 14 13 12 11 11 10 9 8 8 8 9 9 10 12 12 12 12 12 13 14 13 12 11 10 10 9 9 9 8 8 8 7 7 7 7 6 5 4 4 4 4 4 4 5 5 6 6 7 8 9 10 11 12 13 13 14 14 15 15 16 17 17 18 19 19 21 23 24 24 24 23 23
25 25 23 21 21 22 20 16 16 15 14 14 14 12 11 10 11 11 10 9 8 8 9 9 9 10 12 13 13 13 12 13 14 14 13 12 11 11 10 10 9 9 9 9 8 8 7 7 7 5 5 5 4 4 5 5 6 7 8 9 9 10 11 12 13 14 15 16 17 17 17 17 18 19 19 20 20 21 22 23 25 26 26 25 25
26 25 24 22 22 23 20 16 15 15 14 13 11 10 8 9 11 12 11 10 9 9 9 10 10 11 12 13 13 13 13 13 13 13 13 13 12 12 11 11 10 10 9 9 9 8 8 8 7 6 6 6 6 6 6 7 8 9 10 11 12 12 13 13 14 15 16 17 18 18 19 19 20 20 21 21 22 22 23 23 25 27 28 28 28
25 24 23 21 20 20 17 14 13 14 13 11 10 9 9 10 12 13 13 12 10 10 10 11 11 12 12 13 13 14 14 13 13 13 13 13 13 13 12 12 12 11 10 9 9 9 8 8 8 7 7 7 7 8 9 9 10 11 12 13 13 14 14 15 16 16 17 18 19 19 20 20 21 21 22 22 23 23 24 24 25 27 28 28 28
23 23 22 20 18 16 14 12 12 12 12 10 10 11 11 12 15 16 16 14 12 11 12 12 12 12 13 13 14 14 14 14 14 14 13 13 13 13 13 12 13 13 11 10 10 9 9 8 8 8 8 8 9 10 11 11 12 13 14 15 15 16 16 17 17 18 19 19 20 20 20 21 21 21 22 22 23 23 24 25 26 27 28 29 29
22 22 21 18 17 15 13 12 11 11 11 11 12 13 13 15 17 18 17 16 15 13 13 13 13 13 13 13 14 14 14 14 14 14 14 13 13 13 13 13 13 14 13 11 10 10 9 9 9 9 9 10 11 12 13 14 14 15 15 16 17 17 18 18 19 19 20 20 20 20 20 21 21 21 22 23 23 24 24 25 26 27 28 30 31
21 22 21 18 17 16 15 14 13 12 12 12 14 15 16 17 18 18 17 17 16 15 15 15 15 15 15 15 15 15 15 14 14 14 14 14 14 14 13 12 13 14 15 13 11 11 10 10 11 11 11 11 12 13 15 16 16 16 17 17 18 18 18 19 19 20 20 20 20 20 21 21 21 22 22 23 23 24 25 25 26 27 28 30 31
21 22 21 20 18 18 18 18 16 15 14 14 15 17 18 19 19 19 18 18 18 17 16 16 16 16 16 16 16 16 15 14 14 15 16 15 14 14 13 11 12 15 16 14 13 12 12 12 12 13 13 13 13 14 15 16 17 17 18 18 18 18 18 19 19 20 20 20 21 21 21 22 22 23 23 23 24 25 26 27 28 29 30 30 31
20 21 21 20 20 20 19 19 18 17 16 16 16 18 19 19 19 19 19 19 19 19 18 18 17 17 17 16 16 17 16 15 15 16 17 17 16 15 14 13 13 15 16 16 15 14 14 14 14 14 14 14 14 15 15 16 17 18 18 18 18 18 19 19 19 20 20 21 21 22 22 22 23 23 23 24 25 27 28 29 29 30 30 31 31
20 19 19 20 20 20 19 18 19 18 18 18 17 18 20 19 19 18 19 20 20 20 20 19 19 18 18 17 17 17 17 17 17 17 18 18 18 18 17 16 15 16 17 17 16 16 16 15 15 15 14 14 14 15 15 16 17 17 18 18 19 19 19 19 20 20 21 22 22 23 23 23 24 24 25 25 27 28 29 30 31 31 31 30 30
19 18 18 20 20 19 19 19 20 20 20 19 18 19 19 18 17 18 19 20 21 21 21 20 20 20 19 19 18 18 18 18 18 18 18 18 18 19 18 18 17 17 17 17 16 16 17 17 16 15 14 14 15 15 15 16 17 17 18 19 19 19 19 20 21 21 22 23 23 24 24 25 25 26 26 27 29 30 31 32 32 32 31 31 30
18 17 19 20 19 20 20 21 22 22 22 21 19 18 18 16 16 17 19 20 21 21 21 21 22 22 22 20 19 18 18 18 17 17 17 17 17 16 17 18 18 18 17 17 16 16 17 17 16 14 14 14 14 15 15 16 17 18 18 19 20 20 20 21 21 22 23 24 24 25 26 26 27 28 29 30 31 32 33 33 33 33 32 32 31
18 18 20 20 20 21 22 23 24 23 23 22 19 17 17 16 16 17 18 19 20 20 21 22 23 24 22 20 19 18 17 17 17 16 16 15 14 14 15 16 17 17 17 17 16 16 17 16 15 14 14 14 15 15 15 16 17 18 18 20 21 21 22 22 23 23 24 25 26 26 27 28 29 30 31 32 33 34 34 34 34 34 33 33 32
18 19 21 22 23 24 25 26 25 23 23 23 20 18 17 17 16 16 17 18 19 19 20 22 23 23 21 19 18 17 16 16 16 15 14 14 14 14 14 15 16 17 17 17 16 15 15 15 14 13 14 14 15 16 16 16 17 18 19 20 22 23 24 24 25 25 26 27 27 28 29 30 31 32 34 35 35 35 35 35 35 34 34 33 33
18 20 22 25 26 28 28 26 24 23 23 22 20 19 18 18 18 17 18 18 18 19 20 22 22 21 19 17 17 17 16 16 15 15 14 15 14 14 14 14 16 17 16 15 15 14 14 14 14 13 14 15 16 17 17 17 17 18 19 21 23 24 25 26 27 28 28 29 29 30 31 33 34 35 36 36 36 36 36 36 35 34 34 33 33
19 22 24 27 28 29 27 24 23 22 22 21 19 19 19 20 19 19 19 18 19 20 21 22 22 20 18 16 17 17 17 16 15 15 15 15 15 15 15 14 16 16 14 13 13 12 13 13 13 13 15 16 17 18 18 18 19 20 21 22 24 25 27 28 29 30 31 31 32 33 34 36 36 37 38 38 38 37 37 36 35 34 34 34 33
22 24 25 27 28 26 23 21 21 21 20 19 19 20 21 21 21 20 19 18 19 20 22 22 21 19 18 17 18 18 17 17 16 16 16 16 15 15 16 16 16 14 12 10 10 11 13 13 13 14 16 17 18 19 19 20 21 22 23 24 25 26 28 29 31 32 33 34 35 36 37 38 39 39 39 39 38 37 36 35 35 34 34 33 33
22 22 23 25 25 21 19 19 19 18 18 17 18 20 21 21 21 20 19 18 19 21 22 21 21 20 19 18 19 18 18 17 17 16 15 15 15 16 17 16 13 10 9 8 10 12 12 13 14 15 17 18 19 20 21 23 24 25 26 26 27 28 30 31 33 34 36 37 38 39 39 40 40 40 39 38 37 36 35 34 34 33 33 33 33
20 20 20 22 21 19 18 18 18 18 17 18 19 19 20 20 21 20 19 19 21 23 22 21 20 20 19 19 19 18 18 17 17 16 15 15 15 16 14 12 9 7 7 9 11 12 12 13 14 16 17 19 20 22 23 24 25 26 27 28 30 31 32 34 35 36 38 38 39 40 40 40 39 39 38 37 36 35 34 33 33 33 33 32 32
19 19 18 19 20 19 18 18 18 18 17 18 19 19 19 19 20 19 18 20 22 22 21 20 19 19 19 19 19 18 18 18 17 16 14 14 13 11 9 7 6 7 9 10 11 12 13 13 14 16 17 19 20 22 23 25 26 28 29 30 32 33 35 36 37 38 38 39 39 39 39 38 37 37 36 35 34 34 33 33 33 32 32 32 32
19 18 18 20 21 20 18 18 19 18 17 18 19 18 18 18 18 19 19 20 21 21 20 19 18 18 19 19 18 17 16 17 16 14 13 12 10 8 6 6 7 9 10 11 12 13 13 14 15 16 18 19 20 22 24 25 27 29 30 32 33 35 36 37 38 38 39 38 38 38 37 36 36 35 34 34 34 33 33 32 32 32 32 32 32
18 19 19 20 21 20 19 19 19 18 17 19 20 18 17 18 19 20 20 21 21 21 20 18 17 17 18 18 16 14 13 14 14 14 13 11 9 7 7 8 9 10 11 12 13 13 14 15 16 17 18 19 21 22 25 26 28 30 32 33 34 35 37 37 38 38 38 37 37 36 36 36 35 34 34 34 33 33 32 32 32 32 33 33 33
19 19 19 19 20 19 19 20 19 19 19 19 20 19 18 20 21 20 20 20 20 19 17 16 15 16 17 16 13 12 12 12 12 13 12 10 8 8 8 9 11 12 13 13 14 14 15 17 17 18 19 20 22 24 26 28 30 31 32 33 34 36 37 38 38 38 37 37 36 36 36 36 35 35 35 34 34 33 33 33 34 34 34 35 35
19 19 19 19 19 17 19 21 20 21 20 19 19 19 20 21 21 19 19 19 18 16 15 14 15 15 16 14 12 11 11 11 11 11 10 9 8 8 9 11 12 13 14 14 14 16 17 17 17 19 20 22 24 26 27 29 30 31 32 33 35 37 38 39 39 39 38 37 36 36 35 36 36 35 35 35 34 35 35 35 36 36 36 37 38
21 20 19 19 18 18 21 22 21 21 20 18 18 19 20 20 19 18 18 17 16 15 14 14 15 15 15 15 13 12 11 11 10 9 9 9 9 10 11 13 13 14 14 15 16 17 17 18 19 20 22 24 25 27 28 30 30 32 33 34 36 38 39 39 39 39 38 37 37 36 36 36 36 36 35 35 36 37 37 37 38 38 39 40 41
21 20 18 18 18 20 22 22 20 20 19 18 19 19 19 18 17 17 16 15 14 13 14 15 15 15 16 16 13 12 11 10 10 10 10 10 10 12 13 14 14 15 15 16 17 17 18 19 20 22 24 25 27 28 29 29 31 32 34 35 37 38 39 39 39 39 38 38 37 37 36 36 36 36 36 37 38 38 39 40 40 41 42 43 44
20 19 18 18 18 20 21 20 19 18 17 18 19 19 18 17 16 16 15 13 13 14 14 15 15 14 16 16 14 13 12 11 11 11 11 11 12 13 14 14 15 15 16 17 17 18 19 20 22 24 25 26 27 28 29 30 31 33 34 36 37 38 38 38 38 38 37 37 37 37 36 36 36 36 37 38 40 40 41 42 43 44 45 46 47
20 19 18 17 18 20 20 19 17 16 16 18 19 18 17 16 16 16 15 14 14 14 15 16 15 15 16 16 15 13 13 13 12 12 12 12 13 14 14 15 15 16 17 17 18 19 20 21 23 24 26 27 27 28 29 31 32 33 35 36 37 37 37 37 36 36 36 36 36 36 36 36 36 37 38 39 41 42 43 44 45 46 47 48 49
19 18 17 17 19 20 20 18 16 15 16 18 18 17 16 16 16 16 15 16 16 16 17 17 16 16 16 16 15 14 14 14 13 13 14 14 14 14 15 15 16 17 18 18 19 20 21 22 24 25 26 27 28 29 30 31 33 34 36 37 37 38 37 37 37 37 36 36 36 37 37 38 39 40 40 41 42 43 44 45 47 48 49 50 51
Wind_Direction
347 350 355 358 359 358 356 354 353 351 349 347 344 343 342 344 349 354 356 357 356 352 355 5 8 6 7 10 11 11 11 11 12 12 12 10 9 10 11 15 19 23 27 32 40 45 42 38 34 28 24 20 18 14 10 8 6 3 358 354 351 349 345 338 331 324 319 315 312 311 309 308 306 305 305 304 301 299 297 296 296 296 295 295 293
340 344 350 354 356 356 355 354 352 350 350 348 345 343 342 343 346 350 352 354 355 350 352 2 7 6 5 8 9 10 10 10 9 11 12 10 9 10 11 14 18 24 29 35 41 46 43 34 28 22 16 15 15 13 10 8 5 0 357 354 350 345 338 330 326 322 319 316 315 313 312 310 308 305 304 304 303 303 302 301 300 300 299 298 297
333 338 343 349 352 353 354 353 351 350 350 349 347 344 341 342 344 347 348 350 353 350 350 359 6 5 4 5 8 8 9 8 8 9 11 9 8 9 11 13 16 21 27 32 37 41 38 29 22 16 13 12 13 12 10 7 2 360 358 354 348 342 335 330 326 321 317 315 313 312 310 308 307 306 306 307 307 308 307 305 304 304 304 304 303
327 330 336 342 347 350 351 351 350 350 350 349 347 344 342 341 342 344 344 347 351 350 348 356 5 5 3 4 7 7 7 7 7 8 9 9 7 8 11 13 15 17 23 27 29 30 29 25 18 16 14 12 11 10 6 2 360 360 357 352 347 343 339 335 330 325 320 316 313 311 309 309 310 311 312 313 314 313 312 310 308 307 306 306 306
323 324 330 337 342 346 348 347 347 348 349 349 347 345 342 341 340 340 341 343 347 349 348 353 3 5 3 3 6 7 6 6 5 6 8 9 7 7 10 13 15 16 19 21 22 23 23 20 16 14 13 10 7 5 360 357 358 357 355 351 348 346 345 342 338 334 329 324 321 318 316 315 315 316 316 317 318 317 315 313 312 311 310 310 309
323 323 326 332 338 343 345 344 344 345 348 348 347 345 342 341 339 337 337 340 344 346 346 349 0 5 3 3 5 5 5 5 5 5 7 8 7 7 10 13 15 17 19 19 19 20 19 17 14 12 11 9 5 1 358 357 357 356 353 351 349 349 347 346 344 341 337 332 327 323 322 321 320 319 319 320 321 321 319 317 316 316 316 315 314
324 322 323 329 336 341 342 342 342 343 346 348 347 345 343 341 338 335 333 337 340 343 344 346 357 4 2 3 4 4 4 4 4 4 6 7 7 8 10 13 16 18 20 21 21 20 19 16 13 12 11 8 3 1 1 360 357 354 352 350 349 348 347 347 345 342 339 335 330 328 327 326 323 321 321 323 327 327 323 320 320 321 320 320 318
320 319 320 326 334 339 341 342 341 342 346 349 347 345 344 342 338 333 330 334 337 339 340 342 354 3 1 2 1 2 3 3 3 4 5 7 7 8 11 14 18 21 24 25 24 22 20 18 15 13 12 8 4 5 5 4 359 354 351 350 349 347 346 346 345 343 340 337 334 333 331 329 326 324 325 328 331 330 325 323 324 324 324 323 322
314 316 318 324 331 336 339 340 339 340 346 349 346 343 343 342 337 332 329 331 334 335 335 339 350 359 359 359 359 360 2 2 2 3 5 7 7 8 11 15 20 24 27 28 26 24 22 20 18 16 14 11 8 8 9 7 2 357 353 351 351 350 349 348 346 344 340 338 337 336 333 331 329 328 330 332 333 330 326 325 324 324 323 323 323
310 313 317 323 328 332 335 335 333 336 345 348 345 342 342 341 336 331 328 329 331 331 331 335 345 353 355 356 358 358 360 2 1 4 6 8 8 8 11 16 23 27 29 29 28 25 23 21 20 20 18 14 10 10 10 8 4 0 357 354 354 355 355 352 348 345 342 340 339 338 335 333 332 332 333 333 331 329 327 325 324 322 321 320 320
309 312 315 319 323 326 328 327 326 331 340 343 342 339 339 339 335 331 328 327 328 327 327 331 339 346 350 353 356 356 358 360 1 4 7 9 9 8 11 17 24 28 28 29 27 24 23 21 20 23 20 16 11 10 10 8 7 5 2 358 358 1 0 357 352 347 344 341 339 337 336 334 332 331 332 331 330 329 327 325 324 321 320 320 319
310 313 313 314 315 318 320 320 321 326 333 336 336 335 336 337 335 332 328 326 326 324 324 328 334 340 346 350 353 353 355 358 359 4 6 9 10 8 9 16 24 26 26 26 25 23 21 19 19 22 21 16 11 9 10 9 9 10 7 3 1 3 3 1 355 351 346 342 339 338 337 334 332 331 332 332 331 329 327 325 324 323 322 321 320
313 314 313 312 311 312 314 315 317 322 327 329 329 329 331 335 335 331 328 325 325 321 321 326 330 334 340 344 349 349 351 355 358 2 6 8 10 8 8 14 20 21 20 20 21 20 19 18 18 22 23 18 12 8 8 9 10 11 11 10 6 4 4 1 357 354 350 346 343 340 338 335 333 333 334 335 334 332 330 328 328 326 324 322 320
315 316 318 318 313 310 309 310 312 315 320 323 322 323 326 332 333 329 326 324 323 318 318 325 326 328 332 338 343 343 346 351 355 360 3 6 7 6 5 9 14 14 10 10 13 13 14 14 15 20 24 21 13 7 5 6 7 7 11 14 12 8 4 360 356 354 352 349 345 342 339 337 336 336 336 335 334 332 330 329 329 327 325 322 319
317 319 323 325 319 312 306 304 306 309 314 318 318 318 320 327 329 324 322 322 321 315 316 322 321 321 325 331 336 336 339 346 352 357 0 3 4 2 360 2 7 6 360 358 360 2 5 7 8 11 17 19 15 6 359 358 360 3 8 12 13 11 4 0 359 356 353 349 344 342 340 338 338 337 337 336 335 332 331 330 328 327 326 322 319
315 320 324 325 322 316 308 305 303 305 310 314 314 314 315 321 323 320 319 319 317 312 313 318 314 314 317 322 328 328 331 338 348 353 356 358 359 357 353 353 357 357 349 346 347 349 350 351 355 357 2 10 11 1 349 347 350 357 6 11 14 14 11 7 4 1 357 352 347 342 339 337 337 337 336 336 336 335 334 332 330 329 326 323 321
311 317 322 323 320 315 309 305 301 300 303 308 311 309 308 314 317 316 317 318 315 310 311 312 308 307 309 314 321 322 323 329 340 349 351 352 353 350 345 342 344 344 336 332 331 330 329 331 332 332 335 345 356 351 334 333 338 350 3 11 17 21 21 16 11 7 2 358 352 346 343 341 341 341 341 340 339 337 335 332 331 329 326 325 323
311 316 321 321 317 312 309 305 300 297 299 304 307 302 300 306 312 315 318 318 314 310 309 307 303 301 303 309 315 317 316 319 330 342 346 346 345 343 337 331 327 324 320 315 310 308 307 307 308 308 309 314 317 312 313 321 329 342 358 8 16 22 24 21 17 13 9 4 358 354 350 349 349 348 346 344 342 339 336 332 329 327 326 325 324
314 318 322 321 316 314 314 311 304 300 300 303 300 293 293 300 307 313 317 318 315 312 308 303 299 297 299 304 308 311 309 310 319 332 340 341 339 335 330 322 313 306 301 293 289 287 284 281 283 286 287 288 284 281 296 313 321 328 344 360 8 14 17 17 16 14 10 5 359 355 352 351 351 349 346 343 341 339 336 331 327 326 325 324 321
313 319 323 320 316 321 322 315 308 305 303 299 293 287 287 293 301 310 314 315 313 310 305 298 294 292 295 298 302 305 304 304 309 321 331 335 334 330 325 316 305 297 290 279 272 272 267 257 254 261 266 268 265 263 278 295 311 318 328 344 353 357 0 2 4 4 2 357 351 349 348 348 347 344 342 339 337 336 333 328 325 325 325 323 320
311 316 320 315 314 330 328 319 311 305 302 297 292 286 284 286 293 302 307 309 308 305 299 291 288 288 291 292 296 300 300 300 302 309 319 326 328 326 321 311 300 291 284 275 266 266 264 252 239 236 244 252 257 269 282 294 307 318 323 326 331 335 338 343 345 345 345 343 339 338 339 339 338 335 333 331 330 330 327 323 322 324 325 323 322
306 310 312 304 298 319 323 318 311 305 303 300 297 291 283 279 285 292 297 299 301 299 291 285 283 284 286 289 293 295 296 296 296 301 309 316 320 320 316 307 297 288 280 272 264 261 260 254 243 234 236 245 250 261 277 292 302 310 314 315 317 320 322 325 327 328 329 329 328 327 328 327 327 324 323 323 323 324 322 319 321 322 321 320 320
301 303 303 292 283 304 315 312 307 305 304 304 302 295 282 273 277 282 286 291 294 292 286 281 279 281 283 287 291 291 292 293 292 295 300 306 309 311 308 301 294 287 277 269 262 257 253 250 243 237 236 241 247 255 269 285 296 303 308 311 313 314 315 317 318 319 320 320 320 319 319 318 317 316 315 316 316 318 318 318 319 317 315 316 316
295 296 295 286 278 294 309 308 304 304 305 305 304 295 278 268 270 274 279 285 289 288 284 280 278 279 281 285 288 287 287 289 290 291 294 298 302 303 302 297 290 281 273 265 259 253 250 248 245 242 243 249 258 266 277 287 297 303 307 309 311 311 312 313 314 314 314 314 313 312 312 311 310 310 310 311 313 314 315 315 315 313 315 317 317
289 289 289 285 279 287 298 301 301 303 303 304 301 289 273 267 268 272 276 280 284 284 282 279 277 277 279 282 283 282 281 281 284 286 288 292 296 296 296 294 288 276 267 260 255 251 248 249 250 251 255 263 275 283 291 297 301 305 307 308 308 307 307 307 307 307 306 305 305 306 306 306 306 307 309 310 311 312 313 313 313 314 316 318 317
284 281 283 284 281 281 285 290 297 299 299 299 295 284 279 277 275 276 277 278 279 279 279 277 275 275 277 278 279 278 275 274 277 279 281 284 288 290 290 291 287 277 265 255 250 248 247 250 254 257 263 272 286 294 297 299 301 302 303 302 301 300 300 301 302 301 300 300 301 302 303 304 305 307 308 310 311 312 314 314 314 315 316 315 315
280 276 277 279 277 275 276 284 294 294 292 290 285 281 282 281 280 281 280 279 278 276 276 275 275 275 274 275 275 275 273 271 272 275 275 275 279 283 285 287 288 280 267 255 249 247 249 254 260 268 275 284 291 296 298 299 300 300 299 298 297 298 299 301 301 300 300 300 301 301 302 304 306 308 310 312 313 314 314 315 316 315 315 314 314
275 272 272 271 268 267 270 280 288 289 287 282 278 279 282 282 282 283 281 280 279 278 276 276 276 274 273 272 271 271 270 268 268 270 270 269 271 274 278 283 287 282 271 259 252 250 254 260 267 273 279 286 291 295 299 301 300 298 297 298 299 301 302 303 303 302 301 302 302 303 305 307 309 311 311 312 313 314 315 316 316 316 314 313 314
273 269 266 264 262 262 267 278 284 282 283 280 278 280 283 283 283 282 281 280 279 279 277 276 274 272 271 269 269 268 267 267 265 265 263 261 264 268 272 278 285 284 275 263 256 255 258 264 268 274 280 287 293 298 300 301 300 300 300 301 303 304 304 304 303 303 304 304 306 307 309 311 312 312 312 313 314 315 316 317 317 316 314 313 313
273 266 260 259 259 262 269 278 282 280 280 280 281 283 283 282 280 280 279 279 280 279 276 273 272 271 270 269 268 266 266 266 265 263 260 257 258 260 263 268 278 282 276 264 258 260 263 268 271 276 283 289 295 298 300 302 303 303 303 303 303 304 304 304 305 306 307 308 310 311 311 312 312 312 313 314 315 315 316 316 316 314 313 311 310
269 262 258 258 260 264 269 276 279 278 277 278 281 285 285 281 277 276 276 278 280 278 274 272 271 271 271 269 267 266 265 265 264 263 262 260 256 252 252 256 265 275 275 267 262 266 267 269 272 277 284 290 296 300 303 304 303 302 302 302 304 305 307 307 308 309 310 311 310 310 310 311 311 312 313 313 313 314 314 314 313 312 311 309 307
260 257 258 260 262 266 270 274 276 276 275 277 281 286 287 281 274 273 274 277 279 276 272 271 271 272 272 270 267 266 264 264 264 264 265 263 257 251 250 254 259 265 272 269 266 269 271 272 275 279 286 293 298 301 302 302 301 302 304 307 309 311 311 311 311 311 311 310 310 310 310 311 311 311 311 311 311 311 311 311 311 310 309 308 305
254 255 257 259 263 267 271 273 274 275 276 277 281 286 288 279 271 270 273 277 279 276 273 272 273 274 273 271 267 264 262 263 264 266 266 263 257 252 251 255 258 260 266 269 267 270 274 275 277 281 287 292 297 300 303 305 306 309 311 312 312 312 312 311 311 311 311 310 310 310 310 310 309 309 309 309 309 309 309 309 309 309 308 307 306
253 255 257 260 264 266 268 269 272 274 276 278 278 283 285 275 267 269 272 275 276 276 275 275 276 276 275 273 269 265 262 263 265 266 265 261 258 254 252 255 257 257 261 265 266 269 272 274 277 282 289 295 300 305 309 311 312 313 314 313 312 312 311 311 310 310 309 309 309 309 309 308 308 308 307 307 308 308 307 307 307 307 307 306 305
256 257 259 261 262 263 264 265 268 273 274 275 274 275 277 270 266 268 272 274 274 275 276 276 277 277 275 273 270 267 264 263 263 263 261 259 257 253 252 254 253 252 256 261 266 271 274 276 280 287 295 300 303 306 309 312 314 315 314 312 311 310 310 309 309 308 308 307 307 307 307 307 307 306 306 305 305 305 305 305 305 305 305 304 303
255 258 260 261 261 260 260 262 268 272 271 271 270 267 268 267 265 269 272 273 274 275 278 278 278 277 274 272 269 266 262 260 258 258 258 257 256 253 254 254 250 250 255 260 265 271 276 280 285 292 298 301 302 305 310 313 314 313 313 311 310 310 310 310 309 308 307 307 307 307 306 305 305 304 303 303 303 303 304 303 303 303 303 301 300
257 259 261 261 260 258 259 265 271 268 265 266 263 259 262 264 263 267 270 272 274 278 281 281 279 276 272 268 263 260 258 257 256 256 257 256 256 256 257 256 253 251 255 258 262 267 274 281 288 294 298 300 303 307 311 313 314 314 313 313 312 311 311 310 309 309 308 307 307 305 304 303 303 302 302 302 302 302 302 302 301 301 300 299 297
260 261 262 261 259 261 264 269 269 264 261 259 255 254 258 260 262 266 269 272 276 281 284 283 281 276 270 263 258 256 256 257 258 258 258 258 259 260 262 261 255 253 256 259 262 268 275 282 289 295 299 303 306 308 311 314 315 315 315 313 312 311 310 310 309 309 308 307 306 305 304 303 303 303 303 302 302 302 301 301 300 300 299 297 296
260 259 260 259 259 264 267 265 262 259 255 252 250 252 255 257 260 264 268 272 277 282 285 284 281 274 268 261 256 255 256 258 259 259 260 261 262 265 267 263 256 254 256 260 267 274 279 286 294 300 304 307 309 311 313 315 315 315 314 312 311 310 310 309 308 307 307 306 305 305 305 304 304 304 303 303 302 302 302 301 300 299 298 297 295
259 256 255 257 261 263 261 259 257 254 251 250 249 251 253 256 259 262 267 273 277 280 281 280 276 270 265 259 255 254 255 257 259 259 259 260 263 265 267 264 257 251 253 260 269 275 282 292 301 307 309 311 313 315 316 316 315 314 313 312 311 310 309 308 307 307 306 306 306 305 305 304 304 303 303 302 302 302 302 301 300 299 298 296 295
255 249 247 254 261 257 252 254 253 249 250 253 251 251 252 255 258 259 264 272 277 279 277 274 270 266 261 257 254 254 255 256 257 256 256 258 261 263 263 260 251 247 254 264 270 278 289 298 305 309 310 312 314 315 315 315 314 313 312 311 310 309 309 308 307 306 305 305 305 305 304 303 303 302 302 302 302 301 301 300 299 298 297 296 295
246 243 242 249 256 251 247 250 251 250 253 256 255 254 255 255 257 260 265 273 278 278 276 271 267 262 257 255 254 255 256 255 252 251 252 253 255 257 254 248 249 256 263 269 276 287 296 302 307 308 309 311 312 312 312 311 311 311 310 309 309 309 309 308 307 306 305 305 304 303 303 302 302 302 302 302 301 301 300 299 298 297 296 296 296
238 237 237 241 247 247 246 249 251 252 255 259 259 257 257 258 260 266 272 274 272 270 269 269 265 257 254 253 253 253 253 251 247 245 246 248 248 246 246 250 257 264 269 277 286 294 300 304 305 305 307 309 310 310 309 309 308 308 308 308 308 309 309 308 307 307 306 305 304 303 303 302 302 302 302 301 301 300 299 298 297 296 296 296 296
235 235 234 236 241 245 250 253 254 253 252 255 258 256 257 260 263 267 270 269 268 266 267 269 263 253 251 250 247 245 244 243 239 236 239 243 242 243 250 258 263 270 278 286 292 296 300 302 302 303 305 306 307 307 307 307 307 307 308 308 309 309 309 309 308 308 307 306 305 305 304 304 303 303 302 301 300 300 299 298 297 296 296 296 296
238 236 237 240 243 246 253 258 259 258 255 252 253 254 255 259 262 264 265 266 269 269 268 265 256 248 246 240 232 233 237 237 233 233 237 240 242 249 258 265 272 279 284 288 292 296 297 298 299 302 304 305 305 305 306 306 306 306 307 308 309 311 311 311 310 309 308 307 306 306 305 304 304 303 303 302 301 301 300 299 298 297 297 297 296
242 240 239 244 246 244 248 253 252 253 252 249 250 255 255 256 259 261 262 265 266 264 261 252 244 243 237 225 225 236 242 240 236 236 238 241 247 258 265 271 277 280 282 286 290 293 293 295 299 302 303 303 304 305 306 306 305 306 308 311 313 314 314 313 312 310 308 307 306 306 305 304 304 303 302 302 301 301 300 299 298 297 297 296 295
243 242 241 244 246 243 244 245 243 244 246 247 251 254 255 255 258 260 262 263 261 256 248 239 236 236 226 221 233 247 248 244 238 234 235 241 251 260 266 271 274 277 281 286 290 291 292 296 300 301 302 302 304 305 306 306 307 309 312 315 316 316 315 313 311 309 307 306 305 305 304 303 303 302 301 301 300 300 299 299 298 297 297 296 296
241 243 243 244 245 243 241 239 238 241 244 246 249 251 253 256 257 258 259 256 250 244 238 234 235 233 225 227 243 253 251 246 238 234 235 241 251 258 265 269 273 278 284 287 289 291 294 297 299 300 302 305 306 306 306 307 310 313 315 316 316 315 314 312 310 308 306 305 305 304 304 303 302 301 301 300 300 299 299 299 298 298 298 298 298
239 243 245 246 245 241 236 233 236 242 245 247 248 249 250 253 254 254 251 245 239 235 233 232 233 232 230 236 248 251 248 246 242 240 241 246 253 260 266 271 277 282 284 286 288 291 294 295 298 302 305 306 306 306 308 310 313 314 315 315 315 315 314 312 309 307 305 303 302 302 301 301 300 299 299 299 299 299 299 299 298 299 299 299 299
239 242 245 246 242 236 231 231 237 242 247 250 250 248 247 247 247 245 240 236 234 232 232 232 234 235 236 241 245 245 245 247 247 247 248 252 257 263 270 275 280 281 282 283 286 289 291 296 301 305 307 307 308 309 311 312 314 314 315 316 316 316 315 312 309 306 304 302 301 300 300 299 299 298 298 299 298 298 299 299 300 300 299 299 299
240 241 243 242 237 232 230 231 237 243 247 249 250 247 243 241 238 235 235 233 231 231 234 237 239 240 240 241 242 243 245 247 248 247 250 254 261 267 273 276 278 279 280 282 284 288 294 300 305 307 308 310 311 312 313 314 316 317 318 319 319 319 317 315 312 308 306 304 303 302 302 302 302 302 302 302 302 302 302 302 301 301 301 300 300
Height
5901 5901 5901 5900 5900 5899 5897 5896 5895 5895 5895 5895 5894 5893 5892 5891 5890 5889 5888 5888 5887 5886 5886 5885 5885 5884 5883 5882 5881 5880 5880 5879 5878 5876 5875 5874 5872 5871 5870 5870 5869 5868 5867 5866 5866 5866 5865 5865 5865 5864 5864 5863 5863 5863 5862 5862 5861 5861 5860 5860 5859 5859 5858 5858 5857 5857 5856 5856 5856 5856 5855 5855 5854 5854 5853 5853 5852 5852 5851 5851 5851 5851 5850 5850 5849
5901 5901 5901 5900 5900 5899 5897 5896 5896 5896 5895 5895 5894 5893 5892 5891 5890 5889 5888 5888 5887 5886 5886 5885 5885 5884 5883 5882 5882 5881 5880 5879 5878 5877 5875 5874 5873 5872 5871 5870 5869 5868 5867 5867 5866 5866 5865 5865 5865 5864 5864 5863 5863 5862 5862 5862 5861 5861 5860 5860 5859 5859 5858 5858 5857 5857 5857 5856 5856 5856 5856 5855 5855 5854 5853 5853 5852 5852 5851 5851 5850 5850 5850 5849 5849
5901 5901 5901 5900 5900 5899 5897 5896 5896 5896 5895 5895 5894 5893 5892 5891 5890 5889 5888 5888 5887 5886 5886 5885 5885 5884 5883 5883 5882 5881 5880 5879 5878 5877 5876 5874 5873 5872 5871 5870 5869 5868 5867 5867 5866 5866 5865 5865 5865 5864 5864 5863 5863 5862 5862 5862 5861 5861 5860 5860 5859 5859 5858 5858 5857 5857 5857 5856 5856 5856 5855 5855 5854 5854 5853 5852 5852 5851 5851 5851 5850 5850 5849 5849 5848
5901 5901 5901 5900 5900 5898 5897 5897 5896 5896 5895 5894 5893 5892 5892 5891 5889 5889 5888 5887 5887 5886 5886 5885 5885 5884 5884 5883 5882 5881 5880 5879 5878 5877 5876 5875 5873 5872 5871 5870 5869 5868 5867 5867 5866 5866 5865 5865 5864 5864 5864 5863 5863 5863 5862 5862 5861 5861 5860 5860 5859 5859 5858 5858 5857 5857 5856 5856 5856 5855 5855 5854 5854 5853 5853 5852 5852 5851 5851 5850 5850 5849 5849 5848 5848
5901 5900 5900 5900 5899 5898 5898 5897 5897 5896 5895 5894 5893 5892 5891 5890 5889 5888 5888 5887 5887 5886 5885 5885 5885 5884 5884 5883 5882 5881 5880 5879 5878 5877 5876 5875 5874 5872 5871 5870 5869 5869 5868 5867 5866 5865 5865 5865 5865 5864 5864 5863 5863 5863 5862 5862 5861 5861 5860 5859 5859 5858 5858 5857 5857 5857 5856 5856 5855 5855 5854 5854 5853 5853 5852 5852 5851 5851 5851 5850 5850 5849 5848 5848 5847
5900 5900 5900 5900 5899 5898 5898 5897 5896 5895 5894 5893 5892 5891 5891 5890 5889 5888 5888 5887 5886 5886 5885 5885 5884 5884 5883 5883 5882 5881 5880 5879 5878 5877 5876 5875 5874 5873 5872 5871 5870 5869 5868 5867 5866 5866 5865 5865 5865 5864 5864 5863 5863 5862 5862 5862 5861 5861 5860 5859 5859 5858 5858 5857 5857 5856 5856 5855 5855 5854 5854 5853 5853 5852 5852 5851 5851 5850 5850 5850 5849 5848 5848 5847 5846
5900 5900 5900 5899 5899 5898 5898 5897 5896 5895 5894 5893 5892 5891 5891 5890 5889 5888 5887 5887 5886 5885 5885 5884 5884 5884 5883 5882 5882 5881 5880 5879 5878 5877 5876 5874 5873 5873 5872 5871 5870 5869 5868 5867 5867 5866 5865 5865 5864 5864 5864 5863 5863 5862 5862 5862 5861 5860 5860 5859 5859 5858 5857 5857 5856 5856 5855 5855 5854 5854 5853 5853 5852 5851 5851 5850 5850 5850 5850 5849 5848 5848 5847 5846 5846
5900 5900 5899 5899 5898 5898 5898 5897 5895 5894 5893 5892 5891 5891 5890 5890 5889 5888 5887 5887 5886 5885 5885 5884 5884 5883 5882 5882 5881 5881 5880 5879 5878 5877 5875 5874 5873 5872 5872 5871 5870 5869 5869 5868 5867 5866 5866 5865 5864 5864 5864 5863 5863 5862 5862 5861 5861 5860 5860 5859 5858 5858 5857 5857 5856 5856 5855 5855 5854 5854 5853 5852 5852 5851 5850 5850 5850 5849 5849 5848 5848 5847 5846 5845 5845
5899 5899 5898 5898 5898 5898 5897 5896 5895 5894 5893 5891 5890 5890 5889 5889 5888 5887 5887 5886 5886 5885 5884 5884 5884 5883 5882 5882 5881 5881 5880 5879 5878 5877 5875 5874 5873 5872 5872 5871 5870 5869 5869 5868 5867 5866 5866 5865 5865 5864 5864 5863 5863 5862 5862 5861 5861 5860 5859 5859 5858 5857 5857 5856 5856 5855 5855 5854 5854 5853 5853 5852 5851 5851 5850 5850 5849 5849 5848 5848 5847 5846 5845 5845 5844
5898 5898 5898 5898 5897 5897 5896 5895 5894 5893 5892 5891 5890 5889 5889 5888 5887 5886 5886 5886 5885 5885 5884 5884 5883 5882 5882 5881 5881 5881 5880 5879 5878 5876 5875 5874 5873 5872 5872 5871 5870 5869 5869 5868 5867 5866 5866 5865 5865 5864 5864 5863 5863 5862 5862 5861 5861 5860 5859 5859 5858 5857 5857 5856 5856 5855 5855 5854 5854 5853 5853 5852 5851 5851 5850 5850 5849 5848 5848 5847 5846 5845 5845 5844 5843
5897 5897 5897 5897 5896 5896 5895 5894 5893 5892 5891 5890 5889 5889 5888 5887 5887 5886 5885 5885 5885 5884 5884 5883 5883 5882 5881 5881 5881 5880 5879 5878 5877 5876 5875 5874 5873 5872 5872 5871 5870 5869 5869 5868 5867 5867 5866 5865 5865 5865 5864 5864 5863 5862 5861 5861 5860 5860 5859 5859 5858 5857 5857 5856 5856 5855 5854 5854 5853 5853 5852 5852 5851 5850 5850 5849 5849 5848 5847 5846 5845 5845 5844 5843 5842
5897 5897 5896 5896 5895 5895 5894 5893 5892 5891 5890 5889 5889 5888 5888 5887 5886 5885 5885 5884 5884 5884 5883 5883 5883 5882 5881 5880 5880 5879 5879 5878 5877 5876 5875 5874 5873 5872 5872 5871 5870 5869 5869 5868 5867 5867 5866 5865 5865 5865 5864 5864 5863 5862 5862 5861 5860 5860 5859 5859 5858 5857 5857 5856 5855 5855 5854 5854 5853 5853 5852 5851 5851 5850 5849 5849 5848 5847 5846 5845 5845 5844 5843 5842 5841
5897 5896 5896 5895 5895 5894 5893 5892 5891 5890 5889 5888 5888 5887 5887 5886 5885 5885 5884 5883 5883 5883 5882 5882 5882 5881 5881 5880 5879 5879 5878 5877 5877 5875 5874 5873 5872 5872 5871 5871 5870 5869 5869 5868 5867 5867 5866 5865 5865 5864 5864 5864 5863 5862 5862 5861 5860 5860 5859 5859 5858 5857 5857 5856 5855 5855 5854 5854 5853 5852 5852 5851 5850 5849 5849 5848 5848 5847 5846 5845 5844 5843 5842 5841 5840
5896 5895 5895 5894 5894 5893 5892 5891 5890 5889 5888 5887 5887 5886 5886 5885 5884 5883 5882 5882 5882 5881 5881 5881 5881 5881 5880 5879 5879 5878 5877 5877 5876 5875 5874 5873 5872 5872 5871 5870 5870 5869 5869 5868 5867 5867 5866 5865 5865 5864 5864 5863 5863 5862 5861 5861 5860 5860 5859 5859 5858 5858 5857 5856 5855 5855 5854 5853 5853 5852 5851 5850 5849 5849 5848 5847 5847 5846 5845 5844 5843 5842 5841 5840 5839
5894 5894 5894 5893 5893 5892 5890 5889 5888 5887 5886 5886 5885 5885 5885 5884 5883 5882 5881 5881 5881 5880 5880 5881 5880 5880 5879 5879 5878 5877 5877 5876 5875 5875 5874 5873 5872 5871 5870 5870 5869 5869 5869 5868 5867 5867 5866 5865 5864 5864 5864 5863 5863 5862 5861 5861 5860 5860 5859 5859 5858 5858 5857 5856 5855 5855 5854 5853 5852 5851 5850 5850 5849 5848 5847 5846 5846 5845 5844 5843 5841 5840 5839 5838 5837
5893 5892 5892 5891 5890 5889 5888 5887 5886 5885 5885 5884 5884 5884 5883 5882 5882 5881 5880 5880 5879 5879 5879 5880 5879 5879 5878 5878 5877 5877 5876 5875 5875 5874 5873 5872 5871 5871 5870 5869 5869 5869 5868 5868 5867 5867 5866 5865 5864 5864 5863 5863 5862 5862 5861 5860 5860 5859 5859 5858 5858 5857 5856 5856 5855 5854 5854 5853 5852 5851 5850 5849 5848 5847 5846 5845 5845 5844 5843 5841 5840 5839 5838 5836 5835
5891 5891 5890 5889 5888 5887 5885 5885 5884 5883 5883 5883 5882 5882 5881 5881 5880 5879 5879 5878 5878 5878 5878 5879 5878 5878 5877 5877 5877 5876 5875 5875 5874 5873 5872 5872 5871 5870 5869 5869 5868 5868 5868 5867 5867 5866 5866 5865 5864 5863 5863 5862 5862 5861 5860 5860 5859 5859 5858 5857 5857 5856 5856 5855 5854 5854 5853 5852 5851 5850 5849 5848 5847 5846 5846 5845 5844 5843 5841 5840 5839 5838 5836 5835 5834
5890 5889 5888 5887 5886 5884 5883 5882 5881 5881 5881 5881 5881 5880 5879 5879 5878 5878 5877 5877 5877 5877 5877 5877 5877 5877 5877 5876 5876 5875 5875 5874 5873 5872 5872 5871 5871 5870 5869 5868 5868 5867 5867 5867 5866 5866 5865 5864 5864 5863 5862 5862 5861 5861 5860 5859 5859 5858 5857 5857 5856 5855 5855 5854 5854 5853 5852 5851 5850 5850 5849 5848 5847 5846 5845 5844 5843 5842 5841 5839 5838 5837 5835 5834 5833
5889 5888 5887 5885 5884 5882 5881 5880 5880 5879 5879 5879 5878 5877 5877 5877 5876 5876 5876 5875 5875 5875 5876 5876 5876 5876 5876 5875 5875 5874 5874 5873 5872 5872 5871 5871 5870 5869 5869 5868 5867 5867 5866 5866 5866 5865 5865 5864 5863 5863 5862 5861 5861 5860 5860 5859 5858 5857 5857 5856 5855 5855 5854 5853 5853 5852 5851 5850 5850 5849 5848 5847 5846 5845 5844 5843 5842 5841 5840 5838 5836 5835 5834 5833 5831
5887 5886 5885 5884 5883 5881 5880 5880 5879 5878 5878 5877 5876 5875 5875 5875 5875 5875 5874 5873 5873 5873 5874 5875 5875 5875 5875 5874 5874 5873 5873 5873 5872 5871 5870 5870 5869 5869 5868 5867 5867 5866 5866 5865 5865 5864 5864 5863 5863 5862 5862 5861 5860 5860 5859 5858 5858 5857 5856 5855 5854 5854 5853 5853 5852 5851 5850 5850 5849 5848 5847 5846 5845 5844 5843 5842 5841 5840 5839 5837 5835 5834 5833 5831 5830
5885 5885 5884 5883 5882 5880 5880 5879 5878 5878 5877 5876 5875 5874 5873 5873 5873 5873 5872 5872 5871 5871 5872 5872 5873 5874 5873 5873 5873 5873 5872 5872 5871 5870 5870 5869 5869 5868 5867 5867 5866 5865 5865 5864 5864 5863 5863 5862 5862 5861 5861 5860 5860 5859 5859 5858 5857 5856 5856 5855 5854 5853 5853 5852 5851 5850 5850 5849 5848 5847 5847 5846 5845 5844 5843 5841 5841 5840 5838 5836 5835 5834 5832 5830 5828
5884 5883 5883 5882 5881 5879 5879 5878 5877 5876 5875 5874 5873 5872 5872 5871 5871 5871 5871 5870 5870 5870 5870 5870 5871 5872 5872 5872 5872 5872 5872 5871 5871 5870 5869 5868 5868 5867 5866 5866 5865 5864 5864 5864 5863 5863 5862 5862 5861 5860 5860 5859 5859 5858 5858 5857 5856 5856 5855 5854 5854 5853 5852 5851 5850 5850 5849 5848 5847 5847 5846 5845 5844 5843 5841 5840 5839 5839 5837 5835 5834 5833 5831 5829 5826
5882 5882 5881 5881 5879 5878 5878 5877 5876 5875 5874 5873 5872 5871 5870 5870 5869 5869 5869 5869 5868 5868 5868 5869 5869 5870 5870 5870 5871 5871 5870 5870 5870 5869 5869 5868 5867 5866 5865 5865 5864 5863 5863 5863 5862 5862 5861 5861 5860 5860 5859 5858 5858 5857 5857 5856 5856 5855 5854 5854 5853 5852 5851 5851 5850 5849 5848 5847 5846 5846 5845 5844 5843 5841 5840 5839 5838 5838 5836 5834 5833 5830 5828 5826 5824
5880 5880 5879 5879 5878 5877 5876 5875 5875 5874 5873 5872 5871 5870 5869 5868 5868 5868 5867 5867 5867 5867 5867 5867 5868 5868 5868 5869 5869 5869 5869 5869 5868 5868 5868 5867 5867 5866 5865 5864 5863 5862 5862 5861 5861 5861 5860 5860 5860 5859 5858 5858 5857 5857 5856 5856 5855 5854 5854 5853 5853 5852 5851 5850 5849 5848 5847 5846 5845 5844 5844 5843 5841 5840 5839 5838 5837 5836 5835 5833 5831 5828 5826 5825 5824
5878 5877 5877 5876 5876 5876 5875 5874 5873 5872 5871 5870 5870 5868 5867 5867 5866 5866 5866 5866 5866 5866 5866 5866 5866 5867 5867 5867 5867 5867 5867 5867 5867 5867 5866 5866 5866 5865 5864 5863 5862 5861 5860 5860 5860 5860 5859 5859 5859 5858 5857 5857 5856 5856 5856 5855 5855 5854 5853 5853 5852 5851 5850 5849 5848 5847 5846 5845 5844 5843 5842 5841 5840 5839 5837 5836 5835 5835 5833 5832 5830 5827 5825 5823 5822
5876 5875 5875 5874 5874 5874 5873 5872 5871 5871 5870 5869 5869 5868 5867 5866 5865 5865 5864 5864 5864 5864 5864 5864 5865 5865 5865 5865 5865 5865 5866 5865 5865 5865 5865 5865 5864 5864 5863 5862 5861 5860 5860 5859 5859 5858 5858 5858 5857 5857 5856 5856 5856 5855 5855 5855 5854 5853 5852 5851 5850 5850 5849 5848 5847 5845 5844 5843 5842 5841 5840 5839 5838 5837 5836 5835 5834 5832 5831 5830 5828 5826 5824 5822 5821
5874 5873 5873 5873 5872 5872 5871 5871 5870 5869 5868 5868 5867 5866 5866 5865 5864 5864 5863 5863 5863 5863 5863 5863 5863 5863 5863 5864 5864 5864 5864 5864 5863 5863 5863 5863 5862 5862 5862 5861 5861 5860 5859 5858 5858 5857 5857 5857 5856 5856 5855 5855 5855 5854 5854 5854 5853 5852 5851 5850 5849 5848 5847 5846 5845 5844 5843 5842 5841 5840 5839 5838 5837 5836 5834 5833 5832 5830 5829 5828 5826 5825 5822 5820 5818
5871 5871 5871 5871 5870 5870 5870 5869 5868 5868 5867 5866 5866 5865 5864 5863 5863 5862 5862 5861 5861 5861 5861 5861 5861 5861 5862 5862 5862 5862 5862 5861 5861 5861 5861 5861 5860 5860 5860 5860 5860 5859 5859 5858 5857 5857 5856 5856 5855 5855 5854 5854 5854 5853 5853 5853 5852 5851 5850 5849 5848 5847 5846 5845 5844 5842 5841 5840 5839 5838 5837 5836 5835 5834 5833 5831 5830 5828 5827 5826 5824 5822 5820 5817 5815
5869 5869 5869 5869 5868 5868 5868 5867 5867 5866 5865 5865 5864 5863 5862 5862 5861 5860 5860 5860 5859 5859 5859 5859 5859 5859 5860 5860 5860 5860 5860 5859 5859 5859 5859 5859 5858 5858 5858 5859 5859 5858 5858 5857 5856 5856 5855 5855 5854 5854 5853 5853 5853 5852 5852 5851 5851 5850 5849 5847 5847 5846 5844 5843 5842 5841 5840 5839 5838 5837 5836 5834 5833 5832 5831 5830 5828 5826 5825 5823 5821 5820 5818 5816 5814
5867 5867 5867 5867 5866 5866 5866 5865 5864 5864 5863 5862 5862 5861 5860 5860 5859 5859 5858 5858 5858 5857 5857 5857 5857 5857 5858 5858 5858 5858 5858 5858 5857 5857 5856 5856 5856 5856 5857 5857 5857 5857 5857 5856 5855 5855 5854 5854 5853 5853 5852 5852 5851 5851 5850 5850 5849 5848 5847 5846 5845 5844 5843 5842 5841 5839 5838 5837 5836 5835 5834 5833 5832 5830 5829 5828 5826 5824 5822 5821 5819 5817 5816 5814 5812
5865 5865 5865 5865 5864 5864 5864 5863 5862 5861 5861 5860 5860 5859 5858 5858 5858 5857 5857 5856 5856 5856 5855 5855 5855 5855 5855 5856 5856 5856 5856 5856 5855 5855 5854 5854 5854 5854 5855 5855 5855 5855 5855 5855 5854 5854 5853 5853 5852 5852 5851 5850 5850 5849 5849 5848 5847 5847 5845 5844 5843 5842 5841 5840 5839 5838 5836 5835 5834 5833 5832 5831 5830 5829 5827 5826 5824 5822 5820 5818 5817 5815 5814 5812 5810
5863 5863 5863 5862 5862 5862 5861 5860 5859 5859 5858 5858 5857 5857 5856 5856 5856 5856 5855 5855 5854 5854 5854 5853 5853 5853 5853 5854 5854 5854 5853 5854 5853 5853 5853 5853 5852 5852 5852 5853 5853 5853 5853 5853 5853 5853 5852 5852 5851 5850 5850 5849 5848 5848 5847 5847 5846 5845 5844 5843 5841 5840 5839 5838 5837 5836 5835 5833 5832 5831 5830 5829 5828 5826 5825 5824 5822 5820 5818 5816 5815 5813 5811 5809 5808
5861 5861 5860 5860 5859 5859 5858 5857 5857 5856 5856 5856 5855 5855 5854 5854 5854 5854 5853 5853 5852 5852 5852 5852 5851 5851 5851 5851 5851 5851 5851 5851 5852 5851 5851 5851 5851 5850 5850 5850 5850 5851 5851 5851 5851 5851 5851 5850 5850 5849 5848 5847 5847 5846 5846 5845 5845 5844 5842 5841 5840 5839 5838 5836 5835 5834 5833 5831 5830 5829 5828 5826 5825 5824 5823 5821 5820 5817 5816 5814 5812 5810 5808 5807 5805
5858 5858 5858 5857 5857 5856 5855 5854 5854 5853 5853 5853 5853 5852 5852 5852 5852 5852 5851 5851 5850 5850 5850 5850 5849 5849 5849 5849 5849 5848 5848 5849 5849 5849 5849 5849 5849 5848 5848 5848 5848 5848 5849 5849 5849 5849 5849 5849 5848 5847 5846 5846 5845 5845 5844 5844 5843 5842 5840 5839 5838 5837 5836 5835 5834 5832 5831 5829 5828 5827 5825 5824 5823 5821 5820 5818 5817 5815 5813 5811 5809 5807 5805 5804 5802
5856 5855 5855 5855 5854 5853 5852 5851 5850 5850 5851 5851 5851 5850 5850 5850 5850 5850 5849 5849 5848 5848 5848 5848 5847 5847 5847 5847 5847 5846 5846 5847 5847 5847 5847 5847 5847 5846 5846 5846 5846 5846 5846 5847 5847 5847 5847 5847 5846 5845 5844 5844 5843 5843 5842 5842 5841 5840 5839 5838 5836 5835 5834 5833 5832 5830 5829 5827 5826 5825 5823 5822 5820 5819 5817 5815 5814 5812 5810 5808 5806 5804 5803 5801 5799
5853 5853 5852 5851 5850 5849 5848 5847 5848 5849 5848 5848 5848 5848 5848 5848 5848 5847 5847 5846 5846 5846 5846 5845 5845 5845 5846 5846 5845 5844 5844 5844 5845 5845 5845 5845 5845 5844 5844 5844 5844 5844 5844 5845 5845 5845 5845 5845 5844 5843 5842 5841 5841 5841 5840 5840 5839 5838 5837 5836 5835 5833 5832 5831 5829 5828 5826 5825 5823 5822 5821 5819 5818 5816 5814 5812 5811 5809 5807 5805 5803 5801 5800 5798 5796
5850 5850 5849 5848 5846 5845 5844 5845 5846 5847 5846 5845 5845 5845 5845 5846 5845 5845 5844 5844 5844 5843 5843 5843 5843 5843 5844 5843 5843 5842 5842 5842 5842 5842 5842 5842 5842 5842 5842 5842 5842 5842 5842 5843 5843 5844 5844 5843 5842 5841 5840 5839 5839 5838 5838 5838 5837 5836 5836 5834 5833 5831 5829 5828 5826 5825 5823 5822 5821 5819 5818 5816 5815 5813 5811 5809 5808 5806 5804 5802 5800 5798 5796 5795 5793
5847 5846 5845 5843 5841 5840 5841 5843 5843 5843 5843 5842 5842 5842 5843 5843 5843 5842 5842 5842 5842 5841 5841 5841 5841 5841 5841 5841 5841 5841 5840 5840 5840 5840 5840 5841 5841 5841 5841 5840 5840 5840 5840 5841 5841 5842 5842 5841 5840 5839 5838 5837 5837 5836 5836 5835 5835 5834 5833 5832 5830 5829 5827 5825 5824 5822 5821 5819 5818 5816 5814 5813 5811 5809 5808 5806 5804 5802 5800 5799 5797 5795 5793 5791 5790
5843 5842 5841 5839 5837 5837 5839 5840 5839 5839 5840 5839 5839 5839 5840 5840 5840 5839 5839 5839 5840 5839 5839 5839 5839 5839 5839 5839 5839 5838 5838 5838 5838 5838 5839 5839 5839 5839 5839 5839 5839 5839 5839 5839 5840 5840 5840 5839 5838 5837 5836 5835 5834 5834 5833 5832 5831 5831 5830 5829 5828 5826 5825 5823 5821 5820 5818 5816 5815 5813 5811 5809 5807 5806 5804 5802 5800 5798 5796 5794 5793 5791 5789 5787 5786
5838 5838 5837 5835 5834 5836 5837 5837 5837 5837 5837 5836 5836 5836 5837 5837 5837 5837 5837 5837 5838 5837 5837 5837 5837 5837 5837 5837 5837 5836 5836 5836 5836 5837 5837 5837 5837 5837 5837 5837 5837 5837 5838 5838 5838 5838 5838 5837 5836 5835 5834 5833 5832 5831 5830 5829 5828 5828 5827 5826 5825 5823 5822 5820 5819 5817 5815 5813 5811 5810 5808 5806 5804 5802 5800 5798 5796 5794 5792 5790 5789 5787 5785 5784 5782
5834 5834 5834 5833 5832 5833 5834 5834 5834 5834 5834 5834 5834 5834 5834 5834 5835 5835 5835 5835 5835 5835 5835 5835 5835 5835 5835 5835 5835 5835 5834 5834 5835 5835 5835 5835 5835 5835 5835 5835 5835 5836 5836 5837 5837 5837 5836 5835 5834 5833 5832 5831 5830 5829 5828 5827 5826 5825 5824 5823 5822 5820 5819 5817 5816 5814 5812 5810 5808 5806 5804 5802 5800 5798 5796 5794 5792 5790 5788 5787 5785 5783 5782 5780 5779
5831 5831 5831 5830 5830 5830 5831 5831 5831 5831 5831 5832 5831 5831 5831 5832 5833 5833 5833 5834 5833 5833 5833 5832 5832 5833 5833 5833 5833 5833 5833 5833 5833 5833 5833 5834 5834 5833 5834 5834 5834 5835 5835 5835 5835 5835 5834 5834 5833 5832 5831 5830 5829 5827 5826 5825 5824 5823 5822 5821 5819 5818 5816 5814 5812 5810 5809 5807 5805 5803 5800 5798 5796 5794 5792 5790 5788 5786 5784 5783 5781 5780 5779 5777 5775
5827 5828 5828 5828 5827 5827 5827 5828 5828 5828 5829 5829 5829 5829 5830 5830 5831 5831 5831 5831 5831 5831 5830 5830 5830 5830 5830 5830 5831 5831 5831 5831 5831 5832 5832 5832 5832 5832 5833 5833 5834 5834 5834 5834 5834 5833 5833 5832 5831 5831 5830 5828 5827 5826 5825 5824 5822 5821 5819 5818 5816 5815 5812 5810 5808 5807 5805 5803 5801 5799 5796 5794 5792 5790 5788 5786 5784 5783 5781 5779 5778 5776 5775 5773 5772
5824 5824 5824 5825 5825 5824 5825 5825 5825 5826 5826 5827 5827 5828 5828 5829 5829 5829 5829 5829 5829 5829 5828 5828 5828 5828 5828 5828 5829 5829 5829 5829 5830 5830 5830 5831 5831 5831 5832 5832 5832 5833 5833 5832 5832 5831 5831 5830 5830 5829 5828 5827 5826 5824 5823 5822 5820 5819 5817 5815 5813 5811 5809 5807 5805 5803 5801 5799 5797 5795 5792 5790 5788 5786 5784 5782 5780 5779 5777 5776 5774 5772 5771 5769 5768
5822 5821 5822 5822 5822 5823 5823 5823 5823 5824 5824 5825 5825 5826 5826 5826 5826 5827 5827 5827 5827 5827 5826 5826 5826 5826 5827 5827 5828 5828 5828 5828 5828 5829 5829 5830 5830 5830 5831 5831 5831 5831 5831 5831 5830 5830 5829 5829 5828 5827 5826 5825 5824 5823 5821 5820 5818 5817 5815 5813 5810 5808 5806 5803 5801 5799 5797 5795 5793 5790 5788 5785 5783 5782 5780 5778 5776 5774 5773 5771 5770 5768 5766 5765 5763
5819 5819 5820 5820 5820 5821 5821 5821 5822 5822 5822 5823 5823 5823 5823 5824 5824 5824 5824 5824 5824 5824 5824 5824 5824 5825 5825 5826 5827 5827 5827 5827 5827 5828 5828 5829 5829 5829 5830 5830 5830 5830 5829 5829 5829 5828 5828 5827 5826 5825 5824 5823 5822 5820 5819 5817 5816 5814 5812 5810 5807 5805 5802 5799 5797 5794 5792 5791 5789 5787 5784 5782 5779 5778 5776 5774 5772 5770 5768 5767 5765 5763 5762 5760 5758
5817 5816 5817 5818 5818 5819 5819 5819 5819 5819 5820 5820 5821 5821 5821 5821 5822 5822 5822 5822 5822 5822 5823 5823 5823 5824 5824 5825 5825 5826 5826 5826 5826 5827 5827 5827 5828 5828 5828 5828 5828 5828 5828 5827 5827 5826 5825 5824 5823 5823 5822 5821 5819 5818 5816 5815 5813 5811 5809 5806 5804 5801 5799 5796 5793 5791 5788 5786 5784 5783 5781 5778 5775 5773 5771 5769 5768 5766 5764 5762 5760 5759 5757 5755 5753
5815 5814 5815 5816 5816 5816 5816 5817 5817 5817 5817 5818 5818 5818 5819 5819 5820 5820 5820 5820 5820 5821 5821 5822 5822 5823 5823 5824 5824 5824 5824 5825 5825 5826 5826 5826 5826 5827 5827 5827 5827 5826 5826 5825 5825 5824 5823 5822 5821 5820 5819 5818 5817 5815 5814 5812 5810 5807 5805 5803 5801 5798 5796 5793 5790 5787 5784 5782 5779 5778 5776 5774 5772 5769 5767 5765 5763 5761 5760 5758 5756 5754 5752 5749 5747
5813 5812 5813 5813 5813 5814 5814 5814 5815 5815 5815 5815 5815 5816 5816 5817 5818 5818 5818 5818 5819 5819 5820 5821 5821 5822 5822 5822 5823 5823 5823 5824 5824 5824 5824 5824 5825 5825 5825 5825 5824 5824 5823 5823 5822 5822 5821 5820 5819 5818 5817 5815 5814 5812 5811 5808 5806 5804 5802 5800 5798 5795 5793 5790 5787 5784 5781 5778 5776 5773 5772 5770 5768 5766 5764 5761 5759 5757 5755 5753 5751 5749 5747 5744 5742
5810 5810 5811 5811 5811 5812 5812 5812 5812 5812 5813 5813 5813 5814 5814 5815 5815 5816 5816 5817 5817 5818 5819 5819 5820 5821 5821 5821 5821 5822 5822 5822 5822 5823 5822 5823 5823 5823 5823 5823 5822 5822 5821 5821 5820 5820 5819 5818 5817 5816 5814 5813 5811 5809 5807 5805 5804 5802 5800 5797 5795 5792 5789 5786 5784 5781 5778 5775 5773 5770 5768 5766 5764 5762 5760 5758 5755 5753 5751 5748 5746 5743 5741 5738 5736
5808 5808 5809 5809 5809 5810 5810 5810 5810 5810 5811 5811 5811 5811 5812 5813 5814 5814 5814 5815 5816 5817 5817 5818 5819 5819 5820 5820 5820 5820 5820 5821 5821 5821 5821 5821 5821 5821 5821 5820 5820 5820 5819 5819 5818 5818 5817 5815 5814 5813 5812 5810 5808 5806 5804 5802 5800 5798 5796 5793 5791 5788 5785 5782 5780 5777 5775 5772 5769 5766 5764 5761 5759 5757 5755 5753 5750 5747 5746 5743 5740 5737 5734 5731 5729